Location: Fazenda Monte Alegre
(4.8500°S, 38.0333°W)
Time: 16:59:40
(UTC+00:00)

Cosmos 2034 Rocket - Pass Details

Date: 24 September 2020
Orbit: 957 x 1002 km, 82.9° (Epoch: 24 October)

Event Time Altitude Azimuth Distance (km) Brightness Sun altitude
Rises 21:16:20 0° 185° (S) 3,719 7.1 -13.0°
Reaches altitude 10° 21:18:51 10° 186° (S) 2,770 6.5 -13.6°
Maximum altitude 21:25:14 83° 273° (W) 1,012 4.1 -15.2°
Drops below altitude 10° 21:31:36 10° 0° (N) 2,760 6.3 -16.8°
Sets 21:34:07 0° 1° (N) 3,704 7.0 -17.4°
